Regional Weather Roundup
Issued by NWS

Home | Current Version | Previous Version | Graphics & Text | Print | Product List | Glossary On
Versions: 1 2 3 4 5 6 7 8 9 10 11 12 13 14 15 16 17 18 19 20 21 22 23 24 25 26 27 28 29 30 31 32 33 34 35 36 37 38 39 40 41 42 43 44 45 46 47 48 49 50
000
ASUS43 KBIS 230310
RWRND

NORTH DAKOTA REGIONAL WEATHER ROUNDUP
NATIONAL WEATHER SERVICE BISMARCK ND
1000 PM CDT WED MAR 22 2017

NOTE: "FAIR" INDICATES FEW OR NO CLOUDS BELOW 12,000 FEET WITH NO
SIGNIFICANT WEATHER AND/OR OBSTRUCTIONS TO VISIBILITY.


NDZ001>003-009>011-017-230400-
NORTHWEST NORTH DAKOTA

CITY           SKY/WX    TMP DP  RH WIND       PRES   REMARKS
WILLISTON      FAIR      36  31  82 CALM      29.78R
MINOT          FAIR      36  29  75 SE10      29.83S
MINOT AFB      CLOUDY    33  29  85 S14       29.82F
$$

NDZ018>021-031>035-040>046-230400-
SOUTHWEST NORTH DAKOTA

CITY           SKY/WX    TMP DP  RH WIND       PRES   REMARKS
BISMARCK       FAIR      35  28  75 SE9       29.89F
DICKINSON      FAIR      40  33  76 S13       29.76F
GARRISON         N/A     34  29  82 SE14      29.83S
HETTINGER ARPT PTCLDY    42  33  70 E10       29.80R
$$

NDZ004>008-012>016-024-026-027-054-230400-
NORTHEAST NORTH DAKOTA

CITY           SKY/WX    TMP DP  RH WIND       PRES   REMARKS
GRAND FORKS    CLOUDY    33  19  56 S15       30.07F
GRND FRKS AFB  CLOUDY    32  23  70 S18       30.07S
DEVILS LAKE    FAIR      28  25  88 SE16      29.98F WCI  16
$$

NDZ022-023-025-028>030-036>039-047>053-230400-
SOUTHEAST NORTH DAKOTA

CITY           SKY/WX    TMP DP  RH WIND       PRES   REMARKS
FARGO          CLOUDY    35  24  64 S21       30.09F
JAMESTOWN      FAIR      32  24  72 SE17      29.98S
$$





USA.gov is the U.S. government's official web portal to all federal, state and local government web resources and services.